This demonstration page uses our WeatherBlox Daily Observations layout. Learn more.

Hourly Observations for May 28, 2016

Temp ( °F °C ) Dew Point ( °F °C ) Humidity (%) Winds ( mph kmh ) Pressure ( in mb ) Visibility ( mi km ) Precip ( " mm )
12:15 am 00:15 Cloudy with Light Thunderstorms 59 15.2 57 13.8 91 91 N 15 24 29.74 1007 10 16.0934 0 0
12:35 am 00:35 Cloudy with Nearby Thunderstorms 59 14.8 55 13 89 89 NE 9 15 29.74 1007 10 16.0934 0.01 0.254
12:55 am 00:55 Cloudy with Light Rain 59 14.8 56 13.5 92 92 NE 8 13 29.74 1007 10 16.0934 0.03 0.762
1:15 am 01:15 Cloudy with Light Rain 58 14.5 55 12.6 88 88 E 10 17 29.74 1007 10 16.0934 0.02 0.508
1:35 am 01:35 Cloudy with Rain 57 13.7 53 11.7 88 88 Calm 29.77 1008 10 16.0934 0.04 1.016
1:55 am 01:55 Cloudy with Rain 56 13.6 53 11.7 88 88 Calm 29.77 1008 10 16.0934 0.08 2.032
2:15 am 02:15 Cloudy with Light Rain 56 13.1 53 11.8 92 92 Calm 29.77 1008 7 11.26538 0.03 0.762
2:35 am 02:35 Cloudy with Light Rain 56 13.2 54 12.1 93 93 Calm 29.77 1008 10 16.0934 0.03 0.762
2:55 am 02:55 Cloudy with Light Rain 56 13.1 54 12.1 94 94 Calm 29.77 1008 10 16.0934 0.04 1.016
3:15 am 03:15 Cloudy with Light Drizzle 56 13.2 54 12.1 93 93 Calm 29.77 1008 10 16.0934 0 0
3:35 am 03:35 Cloudy 56 13.2 54 12.2 94 94 NE 6 9 29.77 1008 10 16.0934 0 0
3:55 am 03:55 Cloudy with Light Drizzle 56 13.3 54 12.2 93 93 NNE 5 7 29.77 1008 10 16.0934 0.01 0.254
4:15 am 04:15 Cloudy with Light Drizzle 56 13.3 54 12.1 93 93 N 5 7 29.77 1008 10 16.0934 0 0
4:35 am 04:35 Cloudy 56 13.2 54 12.1 93 93 N 5 7 29.77 1008 10 16.0934 0 0
4:55 am 04:55 Mostly Cloudy 55 13 54 12 94 94 NNW 3 6 29.77 1008 10 16.0934 0 0
5:15 am 05:15 Mostly Cloudy 55 13 54 12.2 95 95 WNW 5 7 29.77 1008 7 11.26538 0 0
5:35 am 05:35 Cloudy 56 13.1 54 12.3 95 95 WNW 7 11 29.77 1008 7 11.26538 0 0
5:55 am 05:55 Cloudy 55 13 54 12.2 95 95 WNW 6 9 29.77 1008 10 16.0934 0 0
6:15 am 06:15 Cloudy 55 13 54 12.1 94 94 WNW 6 9 29.77 1008 10 16.0934 0 0
6:35 am 06:35 Cloudy 55 13 54 12.1 94 94 NW 3 6 29.77 1008 10 16.0934 0 0
6:55 am 06:55 Cloudy 55 13 54 12 94 94 NNW 7 11 29.8 1009 10 16.0934 0 0
7:15 am 07:15 Mostly Cloudy 56 13.1 54 12 93 93 NW 7 11 29.8 1009 10 16.0934 0 0
7:35 am 07:35 Partly Cloudy 56 13.3 54 12.1 93 93 Calm 29.8 1009 10 16.0934 0 0
7:55 am 07:55 Mostly Cloudy 56 13.6 54 12.3 92 92 WNW 3 6 29.83 1010 10 16.0934 0 0
8:15 am 08:15 Cloudy 57 13.7 54 12.2 91 91 WNW 6 9 29.83 1010 10 16.0934 0 0
8:35 am 08:35 Cloudy 57 14 54 12.3 90 90 WNW 5 7 29.83 1010 10 16.0934 0 0
8:55 am 08:55 Mostly Cloudy 58 14.4 54 12.1 86 86 W 6 9 29.83 1010 10 16.0934 0 0
9:15 am 09:15 Partly Cloudy 59 15.1 54 12.1 82 82 W 8 13 29.83 1010 10 16.0934 0 0
9:35 am 09:35 Sunny 60 15.6 54 12.1 80 80 WNW 8 13 29.83 1010 10 16.0934 0 0
9:55 am 09:55 Sunny 63 17 55 12.8 76 76 WNW 10 17 29.83 1010 10 16.0934 0 0
10:15 am 10:15 Sunny 64 17.6 56 13.3 76 76 WNW 8 13 29.83 1010 10 16.0934 0 0
10:35 am 10:35 Sunny 65 18.3 56 13.1 72 72 NW 9 15 29.8 1009 10 16.0934 0 0
10:55 am 10:55 Partly Cloudy 66 18.8 55 12.9 69 69 WNW 9 15 29.83 1010 10 16.0934 0 0
11:15 am 11:15 Partly Cloudy 67 19.2 54 12.4 65 65 WNW 7 11 29.83 1010 10 16.0934 0 0
11:35 am 11:35 Partly Cloudy 67 19.5 55 12.5 64 64 WNW 12 19 29.83 1010 10 16.0934 0 0
11:55 am 11:55 Partly Cloudy 68 20.1 55 13 64 64 NW 12 19 29.83 1010 10 16.0934 0 0
12:15 pm 12:15 Partly Cloudy 68 20.2 55 12.5 61 61 NW 8 13 29.83 1010 10 16.0934 0 0
12:35 pm 12:35 Partly Cloudy 68 20.2 52 11.2 56 56 NW 10 17 29.83 1010 10 16.0934 0 0
12:55 pm 12:55 Partly Cloudy 69 20.5 53 11.5 56 56 NW 12 19 29.83 1010 10 16.0934 0 0
1:15 pm 13:15 Partly Cloudy 69 20.8 53 11.6 56 56 WNW 9 15 29.83 1010 10 16.0934 0 0
1:35 pm 13:35 Partly Cloudy 70 21.1 53 11.7 55 55 W 12 19 29.83 1010 10 16.0934 0 0
1:55 pm 13:55 Mostly Cloudy 70 21.2 53 11.7 55 55 WNW 10 17 29.83 1010 10 16.0934 0 0
2:15 pm 14:15 Mostly Cloudy 71 21.7 51 10.3 48 48 WNW 12 19 29.83 1010 10 16.0934 0 0
2:35 pm 14:35 Partly Cloudy 71 21.5 52 11.1 52 52 NW 9 15 29.83 1010 10 16.0934 0 0
2:55 pm 14:55 Partly Cloudy 72 22 53 11.4 51 51 WNW 10 17 29.83 1010 10 16.0934 0 0
3:15 pm 15:15 Partly Cloudy 72 22.2 53 11.9 52 52 WNW 9 15 29.8 1009 10 16.0934 0 0
3:35 pm 15:35 Sunny 73 23 51 10.8 46 46 WNW 10 17 29.8 1009 10 16.0934 0 0
3:55 pm 15:55 Partly Cloudy 72 22.1 51 10.3 47 47 W 15 24 29.83 1010 10 16.0934 0 0
4:15 pm 16:15 Mostly Cloudy 73 23 50 9.8 43 43 WNW 8 13 29.8 1009 10 16.0934 0 0
4:35 pm 16:35 Partly Cloudy 74 23.5 51 10.6 44 44 W 9 15 29.8 1009 10 16.0934 0 0
4:55 pm 16:55 Partly Cloudy 73 23 49 9.6 43 43 W 10 17 29.8 1009 10 16.0934 0 0
5:15 pm 17:15 Mostly Cloudy 73 23 49 9.5 42 42 WSW 8 13 29.8 1009 10 16.0934 0 0
5:35 pm 17:35 Partly Cloudy 75 23.9 51 10.8 44 44 W 10 17 29.8 1009 10 16.0934 0 0
5:55 pm 17:55 Sunny 73 22.7 49 9.4 43 43 W 8 13 29.8 1009 10 16.0934 0 0
6:15 pm 18:15 Partly Cloudy 74 23.3 49 9.5 42 42 W 7 11 29.8 1009 10 16.0934 0 0
6:35 pm 18:35 Sunny 74 23.6 48 9.1 40 40 WNW 8 13 29.8 1009 10 16.0934 0 0
6:55 pm 18:55 Sunny 74 23.5 48 8.8 39 39 W 5 7 29.83 1010 10 16.0934 0 0
7:15 pm 19:15 Sunny 74 23.4 48 9.1 40 40 W 10 17 29.83 1010 10 16.0934 0 0
7:35 pm 19:35 Sunny 73 23 49 9.6 43 43 WSW 7 11 29.83 1010 10 16.0934 0 0
7:55 pm 19:55 Sunny 73 22.7 50 10 45 45 W 6 9 29.83 1010 10 16.0934 0 0
8:15 pm 20:15 Sunny 72 22.2 50 10 46 46 WSW 5 7 29.85 1011 10 16.0934 0 0
8:35 pm 20:35 Sunny 71 21.5 51 10.4 49 49 WSW 5 7 29.88 1012 10 16.0934 0 0
8:55 pm 20:55 Sunny 68 20.2 53 11.9 59 59 Calm 29.88 1012 10 16.0934 0 0
9:15 pm 21:15 Clear 67 19.5 54 12.3 63 63 SW 3 6 29.88 1012 10 16.0934 0 0
9:35 pm 21:35 Clear 66 19 54 12.4 66 66 SW 3 6 29.91 1013 10 16.0934 0 0
9:55 pm 21:55 Clear 66 19.1 53 11.9 63 63 SW 6 9 29.94 1014 10 16.0934 0 0
10:15 pm 22:15 Clear 65 18.5 53 11.8 65 65 SSW 5 7 29.94 1014 10 16.0934 0 0
10:35 pm 22:35 Clear 64 17.8 52 11.2 65 65 Calm 29.94 1014 10 16.0934 0 0
10:55 pm 22:55 Clear 64 18 52 11.1 64 64 SSW 5 7 29.94 1014 10 16.0934 0 0
11:15 pm 23:15 Clear 63 17 52 11 68 68 Calm 29.97 1015 10 16.0934 0 0
11:35 pm 23:35 Clear 62 16.7 52 11.1 70 70 Calm 29.97 1015 10 16.0934 0 0
11:55 pm 23:55 Clear 63 17 52 11.2 69 69 N 9 15 30 1016 10 16.0934 0 0

Powered by AerisWeather